Trophée Interrégional Lucien-Zins

Interrégionale

OYONNAX

Du Samedi 22 Juin 2013 au Dimanche 23 Juin 2013

Bassin de 50m

50 Dos Dames

Séries

Nom Année Club Pays Temps Points Niv.
1 BOISSON Blandine 2000 PAYS VIENNOIS NATATION FRA 0:33:92 1078
2 CHABAS Aure 2000 NAUTIC CLUB NÎMES FRA 0:34:71 1033
3 URBANIAK Anastasia 2000 ND VILLEFRANCHE-EN-BEAUJOLAIS FRA 0:34:71 1033
4 CARETTE-NOORI Anabelle 2000 PAYS D'AIX NATATION FRA 0:34:82 1027
5 VINCENT Manon 2000 SAL ST-PRIEST NATATION FRA 0:34:98 1018
6 ANDRIEU Camille 2000 C.N.P.P BOLLENE FRA 0:35:17 1008
7 DUBARRY Chiara 2001 CN MARSEILLE FRA 0:35:22 1005
8 UGO Odessa 2000 OLYMPIC NICE NATATION FRA 0:35:36 998
9 MAITRE Camille 2001 DAUPHINS ROMANS PÉAGOIS FRA 0:35:49 991
10 GIOVANI Ophelie 2000 AUBAGNE NATATION FRA 0:35:49 991
11 CHATEL Laurine 2000 EP MANOSQUE FRA 0:35:76 976
12 LHOMME Claire 2000 CA PIERRELATTE ASCEAC FRA 0:35:95 966
13 VENTURA Andrea 2000 CN CANNES FRA 0:36:02 962
14 LABELLE Laure 2000 AC ALLAUCH FRA 0:36:03 962
15 VERNIER Lisa 2000 DAUPHINS D'ANNECY FRA 0:36:21 952
16 FABICK Celine 2000 CA PÉZENAS FRA 0:36:22 951
17 FOURAUX Capucine 2000 STADE OLYMPIQUE CHAMBÉRY FRA 0:36:35 945
18 JOUGLARD Noémie 2000 EP MANOSQUE FRA 0:36:48 938
19 PASTEUR Coline 2000 NAUTIC CLUB ALP'38 FRA 0:36:52 936
20 LUCAS Nolwenn 2000 GRENOBLE NATATION FRA 0:36:52 936
21 JEAN Noémie 2000 ASPTT TOULON FRA 0:36:66 928
22 COSTA Noane 2001 APT NATATION FRA 0:36:70 926
23 BESSEDE Charlotte 2000 MONTPELLIER ANUC FRA 0:36:81 920
24 LAFLEURIEL Rose 2000 MOULINS AQUAVIE FRA 0:36:84 919
25 LEGELEUX Ambre 2000 NAUTIC CLUB ALP'38 FRA 0:36:84 919
26 MARCHIO Manon 2000 OLYMPIC NICE NATATION FRA 0:36:86 918
27 BRUNET Julie 2000 CHAMALIERES-MONTFERRAND N FRA 0:36:88 917
28 DIAZ Alizée 2001 TAHITI TAH 0:36:97 912
29 LIAUD Noemie 2000 NAUTIC CLUB ALP'38 FRA 0:37:05 908
30 VELLA Julie 2000 CNS ST-ESTÈVE FRA 0:37:06 907
31 REYMOND Lou 2000 PAYS VIENNOIS NATATION FRA 0:37:07 907
32 BESSET Oriane 2000 CHASSIEU NATATION FRA 0:37:08 906
33 DAFFOS Anaelle 2001 CNS ST-ESTÈVE FRA 0:37:11 905
34 CHABAS Faustine 2000 NAUTIC CLUB NÎMES FRA 0:37:11 905
35 NIEDERLAENDER Mathilde 2000 A.C SEYSSINETTOIS NATATION FRA 0:37:24 898
36 BAULIER Emilie 2000 CN LUNEL FRA 0:37:28 896
37 HOSSINE Anaïs 2000 CN CANNES FRA 0:37:35 892
38 PONCET Emma 2000 DAUPHINS D'ANNECY FRA 0:37:38 891
39 PAIN Laetitia 2000 OLYMPIC NICE NATATION FRA 0:37:42 889
40 SIROP Elsa 2000 CS MEGÈVE NATATION FRA 0:37:49 885
41 STORACE Fanny 2001 US LE PONTET FRA 0:37:52 884
42 MONTOY Fiona 2000 DAUPHINS FC SÈTE FRA 0:37:56 881
43 PIC Romane 2000 US VIC-LE-COMTE NATATION FRA 0:37:64 877
44 MAISONNEUVE Laurie 2000 US VIC-LE-COMTE NATATION FRA 0:37:68 875
45 BROSSIER Alizée 2000 TOULON VAR NATATION FRA 0:37:85 867
46 BARALE Lison 2000 AC HYÈRES FRA 0:37:87 866
47 NOILLET Lou-Anne 2000 RILLIEUX NATATION FRA 0:37:87 866
48 PERRIER GUSTIN Héloïse 2001 CHAMALIERES-MONTFERRAND N FRA 0:37:90 864
49 PERRIN Marine 2000 DAUPHINS ROMANS PÉAGOIS FRA 0:37:90 864
50 GINDRO Margaux 2000 VITROLLES SPORT NATATION FRA 0:37:92 863
51 MACIERI Sandra 2000 CN CANNES FRA 0:37:96 861
52 COLLIER Emilie 2000 NAUTIC CLUB NÎMES FRA 0:38:01 859
53 LAFORET Flavie 2000 LYON NATATION FRA 0:38:06 856
54 GRANET Léna 2000 CN RIOM FRA 0:38:11 854
55 MYKOLOW Anna 2001 MONTPELLIER ANUC FRA 0:38:12 853
56 MARZOLINO Laurie 2001 LE-PONT-DE-CLAIX GUC WATERPOLO FRA 0:38:20 849
57 DEAGE Albane 2001 ASPTT TOULON FRA 0:38:28 845
58 COURTIER Alexandrine 2001 CN LA CIOTAT FRA 0:38:30 844
59 BOURDON Marie 2000 AC HYÈRES FRA 0:38:32 843
60 MALRIC Laura 2000 DAUPHINS FC SÈTE FRA 0:38:33 843
61 TOME LOPES Patricia 2001 STADE CLERMONT NATATION FRA 0:38:33 843
62 LASSALLE-BLANC Fanny 2000 ASPTT BASTIA FRA 0:38:36 841
63 MAURESA Emilie 2001 EMS BRON FRA 0:38:36 841
64 MONTCHALIN Laura 2000 ST-ETIENNE NATATION FRA 0:38:36 841
65 BRIMEUX Louana 2000 AS CACHALOTS SIX-FOURS FRA 0:38:38 840
66 BOISSIERE Tess 2000 AGGLO LE PUY EN VELAY NATATION FRA 0:38:40 839
67 BRUN Justine 2001 US ST-EGRÈVE FRA 0:38:41 839
68 UIUNY Marion 2001 NAUTIC CLUB NÎMES FRA 0:38:47 836
69 JACQUES Morgane 2000 ND VILLEFRANCHE-EN-BEAUJOLAIS FRA 0:38:49 835
70 RUIZ Clara 2001 USN VEDENE FRA 0:38:52 833
71 GUYON Manuela 2000 ENFANTS DU RHÔNE VALENCE FRA 0:38:53 833
72 SALERNO Luna 2000 NAUTIC CLUB ALP'38 FRA 0:38:53 833
73 VENTRE Emma 2000 ASPTT AURILLAC FRA 0:38:53 833
74 COUZINET Camille 2000 AS CACHALOTS SIX-FOURS FRA 0:38:53 833
75 LACAN Ophélie 2000 LYON NATATION FRA 0:38:56 831
76 RAYNAUD Emma 2000 CNS ST-ESTÈVE FRA 0:38:63 828
77 MEALLARES Mylene 2000 CA PIERRELATTE ASCEAC FRA 0:38:65 827
78 FUENTES Jade 2000 CN MARSEILLE FRA 0:38:69 825
79 BERTHIAUD Elise 2000 ST-ETIENNE NATATION FRA 0:38:71 824
80 HEY Claudia 2001 PAYS D'AIX NATATION FRA 0:38:72 823
81 BROSSY Marine 2001 STADE ST-LAURENT-DU-VAR NAT FRA 0:38:83 818
82 MANHES Ilana 2000 STADE CLERMONT NATATION FRA 0:38:85 817
83 VIOLLET Margot 2000 TRITON CLUB BELLEVILLE FRA 0:38:88 815
84 COTE Elia 2000 GRENOBLE NATATION FRA 0:38:92 813
85 YAPP Jennifer 2000 CN LA CIOTAT FRA 0:38:95 812
86 CHEKROUN Sarah 2001 CLUB DE NATATION DE SASSENAGE FRA 0:38:99 810
87 COURIOL Justine 2000 AGGLO LE PUY EN VELAY NATATION FRA 0:39:03 808
88 CADOU Margaux 2001 STADE CLERMONT NATATION FRA 0:39:05 807
89 COFFY Elsa 2000 AS VILLENEUVE-LÈS-AVIGNON FRA 0:39:09 805
90 FILLOUX Alixia 2000 MONTPELLIER ANUC FRA 0:39:22 799
91 GELFMANN Soizic 2001 CN CANNES FRA 0:39:24 798
92 LAGOUCHE Romane 2000 AS CALUIRE FRA 0:39:27 796
93 POZZEBON Elise 2001 CS BOURGOIN-JALLIEU NATATION FRA 0:39:28 796
94 AUGIER Ysaline 2000 DAUPHINS ROMANS PÉAGOIS FRA 0:39:31 794
95 FORTIER Axelle 2000 CN ORANGE FRA 0:39:32 794
96 RIVOIRARD Brune 2000 NAUTIC CLUB SORBIERS FRA 0:39:39 790
97 MOULINET Marie 2001 CN CANNES FRA 0:39:40 790
98 GAUTIER Lou 2000 LE-PONT-DE-CLAIX GUC WATERPOLO FRA 0:39:51 785
99 HOUIDEG Lilia 2001 EMS BRON FRA 0:39:53 784
100 MISZEZUK Laurine 2001 NAUTIC CLUB ALP'38 FRA 0:39:57 782
101 CHEVALIER Laura 2000 TRITON CLUB BELLEVILLE FRA 0:39:57 782
102 BASCON Paloma 2001 LE-PONT-DE-CLAIX GUC WATERPOLO FRA 0:39:67 777
103 PILON Dina 2000 OLYMPIC NICE NATATION FRA 0:39:67 777
104 NGUYEN Alexandra 2000 LYON NATATION FRA 0:39:71 775
105 NASRI Shaynez 2000 LYON NATATION FRA 0:39:79 771
106 DUBERNET Emilie 2000 STADE CLERMONT NATATION FRA 0:39:80 771
107 MORENO Fiona 2000 MONTPELLIER ANUC FRA 0:39:85 768
108 CADET Coline 2000 VICHY VAL D'ALLIER NATATION FRA 0:39:89 766
109 PIQUERET Maelle 2000 TRITON CLUB BELLEVILLE FRA 0:39:90 766
110 NADIR Yasmine 2000 STADE CLERMONT NATATION FRA 0:40:00 761
111 DA RE Fiona 2000 VICHY VAL D'ALLIER NATATION FRA 0:40:00 761
112 DESHONS Emilie 2000 CN LA CIOTAT FRA 0:40:02 760
113 EZZAHR Inès 2000 C.N.P.P BOLLENE FRA 0:40:04 759
114 ROUVIER Alice 2001 AMBÉRIEU NATATION FRA 0:40:07 758
115 SCHENKEL Ninon 2001 CHAMALIERES-MONTFERRAND N FRA 0:40:26 749
116 BROC Justine 2001 DAUPHINS DE GUILHERAND GRANGES FRA 0:40:30 747
117 TORRES Elvina 2001 NAUTIC CLUB NÎMES FRA 0:40:45 740
118 COMBIER Maëlle 2000 UN ARLES FRA 0:40:48 738
119 MENY Elise 2000 NAUTIC CLUB ALP'38 FRA 0:40:66 730
120 RENE Malaury 2000 DAUPHINS YSSINGEAUX FRA 0:41:06 711
121 PEYRIEUX Farah 2000 ST-ETIENNE NATATION FRA 0:41:16 707
122 GONCALVES Léa 2000 US LE PONTET FRA 0:41:45 694
123 GROBET Jessica 2000 DAUPHINS D'ANNECY FRA 0:41:59 687
124 DUSSAUGE Julia 2000 PAYS D'AIX NATATION FRA 0:41:64 685
125 GONTIER Eve 2000 LYON NATATION FRA 0:41:87 675
126 AUGUSTIN Amandine 2000 EP MANOSQUE FRA - Disq.